This demonstration page uses our WeatherBlox Daily Observations layout. Learn more.

Left ArrowRight Arrow

34.16533, -84.80231

Hourly Observations for March 12, 2017

Temp ( °F °C ) Dew Point ( °F °C ) Humidity (%) Winds ( mph kmh ) Pressure ( in mb ) Visibility ( mi km ) Precip ( " mm )
12:29 am 00:29 Cloudy with Light Rain 36 2.2 34 1.1 93 93 undefined N/A 30.27 1025 5 8 0.03 0.76
12:53 am 00:53 Cloudy 36 2.2 34 1.1 93 93 undefined N/A 30.25 1025 7 11 0.03 0.76
1:13 am 01:13 Cloudy with Rain 35 1.7 34 1.1 96 96 undefined N/A 30.30 1026 3 4 0.05 1.27
1:20 am 01:20 Cloudy with Rain 35 1.7 34 1.1 96 96 undefined N/A 30.30 1026 3 5 0.07 1.78
1:53 am 01:53 Cloudy with Light Rain 35 1.7 34 1.1 96 96 undefined N/A 30.25 1025 4 6 0.12 3.05
3:31 am 03:31 Cloudy with Rain 35 1.7 33 0.6 93 93 undefined N/A 30.30 1026 3 4 0.07 1.78
3:46 am 03:46 Cloudy with Light Rain 35 1.7 34 1.1 96 96 undefined N/A 30.30 1026 4 6 0.12 3.05
3:53 am 03:53 Cloudy with Rain 35 1.7 33 0.6 93 93 undefined N/A 30.25 1024 4 6 0.13 3.30
4:53 am 04:53 Cloudy with Mist and Fog 35 1.7 33 0.6 93 93 undefined N/A 30.26 1025 5 8 0.02 0.51
5:53 am 05:53 Cloudy with Light Rain 34 1.1 32 0 92 92 undefined N/A 30.26 1025 8 13 0.03 0.76
6:53 am 06:53 Cloudy 34 1.1 32 0 92 92 undefined N/A 30.28 1025 8 13 0.00 0.03
7:53 am 07:53 Cloudy 34 1.1 32 0 92 92 undefined N/A 30.29 1026 10 16 0.00 0.00
8:14 am 08:14 Cloudy 34 1.1 32 0 92 92 undefined N/A 30.33 1027 10 16 0.00 0.00
8:53 am 08:53 Cloudy 35 1.7 31 -0.6 85 85 undefined N/A 30.32 1027 10 16 0.00 0.00
9:13 am 09:13 Cloudy 35 1.7 31 -0.6 85 85 undefined N/A 30.33 1027 10 16 0.00 0.00
9:53 am 09:53 Mostly Sunny 37 2.8 31 -0.6 79 79 undefined N/A 30.32 1027 10 16 0.00 0.00
10:29 am 10:29 Mostly Cloudy 37 2.8 32 0 82 82 undefined N/A 30.36 1028 10 16 0.00 0.00
10:53 am 10:53 Cloudy 38 3.3 32 0 79 79 undefined N/A 30.32 1027 10 16 0.00 0.00
11:18 am 11:18 Cloudy 38 3.3 33 0.6 83 83 undefined N/A 30.36 1028 10 16 0.00 0.00
11:53 am 11:53 Cloudy with Mist and Fog 38 3.3 35 1.7 89 89 undefined N/A 30.32 1027 5 8 0.00 0.00
12:00 pm 12:00 Cloudy with Mist and Fog 38 3.3 35 1.7 89 89 undefined N/A 30.36 1028 4 6 0.00 0.00
12:53 pm 12:53 Cloudy with Mist and Fog 40 4.4 37 2.8 89 89 undefined N/A 30.32 1027 6 10 0.00 0.00
1:53 pm 13:53 Cloudy 42 5.6 38 3.3 85 85 undefined N/A 30.31 1026 10 16 0.00 0.00
2:07 pm 14:07 Cloudy 43 6.1 38 3.3 82 82 undefined N/A 30.30 1026 10 16 0.00 0.00
2:53 pm 14:53 Cloudy 43 6.1 37 2.8 80 80 undefined N/A 30.29 1026 10 16 0.00 0.00
3:06 pm 15:06 Cloudy 44 6.7 37 2.8 76 76 undefined N/A 30.30 1026 10 16 0.00 0.00
3:53 pm 15:53 Cloudy 45 7.2 36 2.2 71 71 undefined N/A 30.27 1025 10 16 0.00 0.00
4:53 pm 16:53 Cloudy 45 7.2 36 2.2 71 71 undefined N/A 30.29 1026 10 16 0.00 0.00
5:53 pm 17:53 Partly Cloudy 47 8.3 36 2.2 66 66 undefined N/A 30.27 1025 10 16 0.00 0.00
6:53 pm 18:53 Sunny 47 8.3 37 2.8 69 69 undefined N/A 30.24 1024 10 16 0.00 0.00
7:53 pm 19:53 Clear 42 5.6 37 2.8 82 82 undefined N/A 30.25 1024 10 16 0.00 0.00
8:53 pm 20:53 Clear 39 3.9 36 2.2 89 89 undefined N/A 30.25 1024 10 16 0.00 0.00
9:53 pm 21:53 Clear 36 2.2 34 1.1 93 93 undefined N/A 30.26 1025 10 16 0.00 0.00
10:53 pm 22:53 Clear 33 0.6 32 0 96 96 undefined N/A 30.26 1025 10 16 0.00 0.00
11:53 pm 23:53 Clear 37 2.8 34 1.1 89 89 undefined N/A 30.25 1024 10 16 0.00 0.00

Powered by AerisWeather